OAS257 MDSD-SKBO

Flight info

Callsign OAS257
Flight time N/A
Altitude 36000
Route BEROX2J BEROX DCT AMBAS DCT UGOSA DCT LOKOV UG444 EJA UQ119 ILSEV ILSEV5E
Aircraft A320/M-SDE3FGHIRWY/LB1

Departure

Time 2026-05-04 20:49
Airport Las Américas International Airport (MDSD)

Arrival

Time N/A
Airport El Dorado International Airport (SKBO)
Time Latitude Longitude Altitude Speed Heading
2026-05-04 20:05 18.42958 -69.67479 68 ft 0 kts 191°
2026-05-04 20:37 18.42972 -69.67477 58 ft 3 kts 192°
2026-05-04 20:37 18.42994 -69.67471 59 ft 3 kts 193°
2026-05-04 20:37 18.43016 -69.67466 67 ft 3 kts 193°
2026-05-04 20:38 18.43036 -69.67462 58 ft 3 kts 194°
2026-05-04 20:38 18.43051 -69.67454 63 ft 3 kts 264°
2026-05-04 20:38 18.43046 -69.67436 63 ft 3 kts 320°
2026-05-04 20:38 18.43028 -69.67422 62 ft 3 kts 327°
2026-05-04 20:39 18.43009 -69.67409 59 ft 3 kts 317°
2026-05-04 20:39 18.43002 -69.67402 58 ft 1 kts 310°
2026-05-04 20:39 18.43003 -69.67402 58 ft 0 kts 310°
2026-05-04 20:42 18.43005 -69.67404 58 ft 3 kts 311°
2026-05-04 20:42 18.43028 -69.67425 62 ft 4 kts 323°
2026-05-04 20:42 18.43064 -69.67441 58 ft 8 kts 340°
2026-05-04 20:43 18.43128 -69.67465 64 ft 10 kts 341°
2026-05-04 20:43 18.43189 -69.67487 62 ft 9 kts 341°
2026-05-04 20:43 18.43240 -69.67506 64 ft 7 kts 340°
2026-05-04 20:43 18.43294 -69.67525 64 ft 10 kts 341°
2026-05-04 20:44 18.43351 -69.67547 66 ft 6 kts 341°
2026-05-04 20:44 18.43398 -69.67534 64 ft 8 kts 25°
2026-05-04 20:44 18.43459 -69.67532 65 ft 10 kts 336°
2026-05-04 20:44 18.43525 -69.67560 68 ft 11 kts 342°
2026-05-04 20:45 18.43607 -69.67591 65 ft 14 kts 339°
2026-05-04 20:45 18.43701 -69.67630 68 ft 14 kts 339°
2026-05-04 20:45 18.43793 -69.67667 65 ft 14 kts 339°
2026-05-04 20:45 18.43896 -69.67708 65 ft 14 kts 339°
2026-05-04 20:46 18.43996 -69.67748 60 ft 17 kts 340°
2026-05-04 20:46 18.44100 -69.67787 68 ft 12 kts
2026-05-04 20:46 18.44150 -69.67712 67 ft 14 kts 68°
2026-05-04 20:46 18.44177 -69.67636 67 ft 11 kts 70°
2026-05-04 20:47 18.44221 -69.67560 66 ft 14 kts 28°
2026-05-04 20:47 18.44301 -69.67521 66 ft 7 kts 28°
2026-05-04 20:47 18.44351 -69.67490 63 ft 9 kts 35°
2026-05-04 20:47 18.44370 -69.67453 64 ft 7 kts 75°
2026-05-04 20:48 18.44361 -69.67402 65 ft 9 kts 163°
2026-05-04 20:48 18.44348 -69.67398 69 ft 0 kts 161°
2026-05-04 20:48 18.44344 -69.67397 69 ft 6 kts 161°
2026-05-04 20:48 18.44055 -69.67293 66 ft 80 kts 161°
2026-05-04 20:49 18.43338 -69.67027 66 ft 136 kts 161°
2026-05-04 20:49 18.42318 -69.66654 253 ft 164 kts 162°
2026-05-04 20:49 18.41216 -69.66268 818 ft 172 kts 163°
2026-05-04 20:49 18.40042 -69.65893 1453 ft 179 kts 162°
2026-05-04 20:50 18.38858 -69.65462 2067 ft 185 kts 160°
2026-05-04 20:50 18.37573 -69.64975 2326 ft 209 kts 160°
2026-05-04 20:50 18.36097 -69.64551 2665 ft 233 kts 171°
2026-05-04 20:50 18.34422 -69.64290 3171 ft 250 kts 171°
2026-05-04 20:51 18.32671 -69.64029 3926 ft 257 kts 171°
2026-05-04 20:51 18.30882 -69.63767 4780 ft 261 kts 170°
2026-05-04 20:51 18.29071 -69.63503 5585 ft 266 kts 170°
2026-05-04 20:51 18.27228 -69.63234 6390 ft 270 kts 169°
2026-05-04 20:52 18.25354 -69.62962 7121 ft 274 kts 170°
2026-05-04 20:52 18.23455 -69.62686 7877 ft 277 kts 171°
2026-05-04 20:52 18.21529 -69.62408 8621 ft 281 kts 171°
2026-05-04 20:52 18.19581 -69.62127 9368 ft 284 kts 171°
2026-05-04 20:53 18.17610 -69.61844 10089 ft 288 kts 171°
2026-05-04 20:53 18.15583 -69.61552 10448 ft 305 kts 172°
2026-05-04 20:53 18.13404 -69.61238 10627 ft 326 kts 172°
2026-05-04 20:53 18.11121 -69.60910 11111 ft 335 kts 172°
2026-05-04 20:54 18.08784 -69.60733 11704 ft 340 kts 182°
2026-05-04 20:54 18.06433 -69.61066 12293 ft 344 kts 192°
2026-05-04 20:54 18.04078 -69.61597 12909 ft 348 kts 192°
2026-05-04 20:54 18.01701 -69.62135 13490 ft 352 kts 192°
2026-05-04 20:55 17.99289 -69.62679 14034 ft 356 kts 193°
2026-05-04 20:55 17.96855 -69.63224 14537 ft 360 kts 193°
2026-05-04 20:55 17.94396 -69.63773 15045 ft 363 kts 193°
2026-05-04 20:55 17.91913 -69.64323 15555 ft 366 kts 193°
2026-05-04 20:56 17.89407 -69.64880 16079 ft 370 kts 193°
2026-05-04 20:56 17.86879 -69.65443 16591 ft 373 kts 193°
2026-05-04 20:56 17.84328 -69.66012 17109 ft 377 kts 193°
2026-05-04 20:56 17.81751 -69.66588 17622 ft 380 kts 193°
2026-05-04 20:57 17.79152 -69.67167 18134 ft 383 kts 193°
2026-05-04 20:57 17.76537 -69.67748 18591 ft 386 kts 193°
2026-05-04 20:57 17.73901 -69.68334 19044 ft 389 kts 193°
2026-05-04 20:57 17.71244 -69.68926 19500 ft 391 kts 193°
2026-05-04 20:58 17.68572 -69.69520 19946 ft 394 kts 193°
2026-05-04 20:58 17.65884 -69.70117 20399 ft 396 kts 193°
2026-05-04 20:58 17.63179 -69.70717 20841 ft 398 kts 193°
2026-05-04 20:58 17.60463 -69.71321 21263 ft 401 kts 193°
2026-05-04 20:59 17.57761 -69.71922 21684 ft 403 kts 193°
2026-05-04 20:59 17.55005 -69.72534 22115 ft 406 kts 193°
2026-05-04 20:59 17.52233 -69.73151 22516 ft 409 kts 194°
2026-05-04 20:59 17.49443 -69.73771 22929 ft 411 kts 194°
2026-05-04 21:00 17.46633 -69.74396 23321 ft 414 kts 194°
2026-05-04 21:00 17.43808 -69.75021 23697 ft 417 kts 193°
2026-05-04 21:00 17.40965 -69.75648 24014 ft 419 kts 194°
2026-05-04 21:00 17.38100 -69.76279 24334 ft 422 kts 194°
2026-05-04 21:01 17.35223 -69.76915 24655 ft 424 kts 194°
2026-05-04 21:01 17.32327 -69.77558 24961 ft 426 kts 194°
2026-05-04 21:01 17.29422 -69.78205 25289 ft 428 kts 194°
2026-05-04 21:01 17.26499 -69.78855 25604 ft 431 kts 194°
2026-05-04 21:02 17.23563 -69.79507 25913 ft 433 kts 194°
2026-05-04 21:02 17.20607 -69.80160 26217 ft 435 kts 193°
2026-05-04 21:02 17.17640 -69.80814 26521 ft 437 kts 193°
2026-05-04 21:02 17.14655 -69.81470 26806 ft 439 kts 194°
2026-05-04 21:03 17.11654 -69.82132 27097 ft 441 kts 194°
2026-05-04 21:03 17.08642 -69.82798 27383 ft 444 kts 194°
2026-05-04 21:03 17.05615 -69.83467 27661 ft 446 kts 194°
2026-05-04 21:03 17.02575 -69.84139 27937 ft 448 kts 193°
2026-05-04 21:04 16.99518 -69.84814 28220 ft 450 kts 193°
2026-05-04 21:04 16.96447 -69.85494 28496 ft 452 kts 193°
2026-05-04 21:04 16.93364 -69.86177 28764 ft 454 kts 193°
2026-05-04 21:04 16.90265 -69.86861 29032 ft 456 kts 193°
2026-05-04 21:05 16.87151 -69.87546 29295 ft 458 kts 193°
2026-05-04 21:05 16.84022 -69.88233 29540 ft 460 kts 193°
2026-05-04 21:05 16.80882 -69.88923 29793 ft 462 kts 193°
2026-05-04 21:05 16.77733 -69.89618 30026 ft 464 kts 193°
2026-05-04 21:06 16.74562 -69.90315 30232 ft 466 kts 193°
2026-05-04 21:06 16.71387 -69.91016 30442 ft 467 kts 193°
2026-05-04 21:06 16.68203 -69.91717 30650 ft 468 kts 193°
2026-05-04 21:06 16.65012 -69.92419 30865 ft 470 kts 193°
2026-05-04 21:07 16.61814 -69.93120 31139 ft 469 kts 193°
2026-05-04 21:07 16.58624 -69.93820 31451 ft 468 kts 193°
2026-05-04 21:07 16.55446 -69.94518 31759 ft 466 kts 194°
2026-05-04 21:07 16.52279 -69.95214 32065 ft 465 kts 194°
2026-05-04 21:08 16.49114 -69.95909 32367 ft 464 kts 194°
2026-05-04 21:08 16.45953 -69.96599 32675 ft 463 kts 194°
2026-05-04 21:08 16.42800 -69.97288 32981 ft 462 kts 194°
2026-05-04 21:08 16.39653 -69.97979 33282 ft 462 kts 194°
2026-05-04 21:09 16.36517 -69.98669 33599 ft 461 kts 194°
2026-05-04 21:09 16.33382 -69.99360 33903 ft 460 kts 194°
2026-05-04 21:09 16.30258 -70.00047 34169 ft 459 kts 194°
2026-05-04 21:09 16.27132 -70.00732 34421 ft 458 kts 194°
2026-05-04 21:10 16.24016 -70.01417 34679 ft 458 kts 194°
2026-05-04 21:10 16.20904 -70.02098 34930 ft 457 kts 194°
2026-05-04 21:10 16.17797 -70.02778 35174 ft 456 kts 194°
2026-05-04 21:10 16.14698 -70.03454 35413 ft 455 kts 194°
2026-05-04 21:11 16.11603 -70.04130 35645 ft 454 kts 194°
2026-05-04 21:11 16.08510 -70.04808 35860 ft 454 kts 194°
2026-05-04 21:11 16.02390 -70.06152 35956 ft 450 kts 196°
2026-05-04 21:12 15.96668 -70.08555 35953 ft 442 kts 211°
2026-05-04 21:12 15.91276 -70.11639 35956 ft 443 kts 211°
2026-05-04 21:13 15.85874 -70.14714 35955 ft 442 kts 211°
2026-05-04 21:13 15.80474 -70.17780 35951 ft 442 kts 211°
2026-05-04 21:14 15.75072 -70.20844 35951 ft 443 kts 211°
2026-05-04 21:14 15.69667 -70.23910 35948 ft 442 kts 211°
2026-05-04 21:15 15.64269 -70.26974 35947 ft 442 kts 211°
2026-05-04 21:15 15.58868 -70.30040 35944 ft 442 kts 211°
2026-05-04 21:16 15.53464 -70.33108 35938 ft 442 kts 211°
2026-05-04 21:16 15.48067 -70.36166 35937 ft 442 kts 211°
2026-05-04 21:17 15.42657 -70.39219 35937 ft 442 kts 211°
2026-05-04 21:17 15.37256 -70.42279 35931 ft 442 kts 211°
2026-05-04 21:18 15.31852 -70.45337 35928 ft 443 kts 211°
2026-05-04 21:18 15.26437 -70.48391 35926 ft 443 kts 211°
2026-05-04 21:19 15.21030 -70.51455 35925 ft 443 kts 211°
2026-05-04 21:19 15.15614 -70.54516 35926 ft 444 kts 211°
2026-05-04 21:20 15.10190 -70.57576 35927 ft 444 kts 211°
2026-05-04 21:20 15.04766 -70.60635 35931 ft 444 kts 211°
2026-05-04 21:21 14.99340 -70.63695 35930 ft 444 kts 211°
2026-05-04 21:21 14.93911 -70.66753 35933 ft 444 kts 211°
2026-05-04 21:22 14.88481 -70.69814 35933 ft 445 kts 211°
2026-05-04 21:22 14.83047 -70.72874 35934 ft 445 kts 211°
2026-05-04 21:23 14.77604 -70.75925 35937 ft 445 kts 211°
2026-05-04 21:23 14.72161 -70.78978 35935 ft 445 kts 211°
2026-05-04 21:24 14.66761 -70.82007 35935 ft 445 kts 211°
2026-05-04 21:24 14.61326 -70.85069 35937 ft 445 kts 211°
2026-05-04 21:25 14.55898 -70.88125 35932 ft 445 kts 211°
2026-05-04 21:25 14.50458 -70.91166 35932 ft 444 kts 211°
2026-05-04 21:26 14.45025 -70.94211 35932 ft 444 kts 211°
2026-05-04 21:26 14.39593 -70.97258 35925 ft 444 kts 211°
2026-05-04 21:27 14.34167 -71.00291 35925 ft 444 kts 211°
2026-05-04 21:27 14.28743 -71.03323 35918 ft 443 kts 211°
2026-05-04 21:28 14.23321 -71.06350 35917 ft 443 kts 210°
2026-05-04 21:28 14.17903 -71.09373 35914 ft 443 kts 211°
2026-05-04 21:29 14.12489 -71.12401 35915 ft 443 kts 211°
2026-05-04 21:29 14.07077 -71.15425 35912 ft 442 kts 211°
2026-05-04 21:30 14.01667 -71.18442 35909 ft 442 kts 211°
2026-05-04 21:30 13.96255 -71.21462 35905 ft 442 kts 211°
2026-05-04 21:31 13.88152 -71.25985 35905 ft 442 kts 211°
2026-05-04 21:32 13.82744 -71.28990 35903 ft 442 kts 211°
2026-05-04 21:32 13.77335 -71.31997 35903 ft 441 kts 211°
2026-05-04 21:33 13.71938 -71.34999 35900 ft 441 kts 211°
2026-05-04 21:33 13.67453 -71.37493 35898 ft 441 kts 211°
2026-05-04 21:34 13.62058 -71.40497 35896 ft 441 kts 211°
2026-05-04 21:34 13.56660 -71.43500 35893 ft 441 kts 211°
2026-05-04 21:35 13.51268 -71.46498 35894 ft 441 kts 211°
2026-05-04 21:35 13.45875 -71.49489 35894 ft 440 kts 211°
2026-05-04 21:36 13.40480 -71.52475 35894 ft 440 kts 211°
2026-05-04 21:36 13.35088 -71.55458 35889 ft 440 kts 211°
2026-05-04 21:37 13.29700 -71.58444 35890 ft 440 kts 211°
2026-05-04 21:37 13.24315 -71.61429 35888 ft 440 kts 211°
2026-05-04 21:38 13.18934 -71.64412 35883 ft 439 kts 211°
2026-05-04 21:38 13.13552 -71.67383 35880 ft 439 kts 210°
2026-05-04 21:39 13.08172 -71.70360 35882 ft 439 kts 211°
2026-05-04 21:39 13.02790 -71.73341 35879 ft 439 kts 211°
2026-05-04 21:40 12.97412 -71.76311 35881 ft 439 kts 210°
2026-05-04 21:40 12.92032 -71.79277 35877 ft 439 kts 210°
2026-05-04 21:41 12.86658 -71.82242 35873 ft 439 kts 211°
2026-05-04 21:41 12.81320 -71.85186 35876 ft 439 kts 211°
2026-05-04 21:42 12.75982 -71.88206 35875 ft 438 kts 211°
2026-05-04 21:42 12.70668 -71.91267 35878 ft 438 kts 211°
2026-05-04 21:43 12.65365 -71.94324 35876 ft 437 kts 211°
2026-05-04 21:43 12.60063 -71.97368 35873 ft 437 kts 211°
2026-05-04 21:44 12.54751 -72.00394 35867 ft 437 kts 211°
2026-05-04 21:44 12.49442 -72.03414 35861 ft 436 kts 211°
2026-05-04 21:45 12.44143 -72.06444 35858 ft 436 kts 211°
2026-05-04 21:45 12.38845 -72.09473 35854 ft 436 kts 211°
2026-05-04 21:46 12.33547 -72.12494 35847 ft 436 kts 211°
2026-05-04 21:46 12.28248 -72.15517 35840 ft 436 kts 210°
2026-05-04 21:47 12.22950 -72.18531 35835 ft 436 kts 210°
2026-05-04 21:47 12.17651 -72.21549 35832 ft 436 kts 210°
2026-05-04 21:48 12.12359 -72.24567 35830 ft 436 kts 210°
2026-05-04 21:48 12.07064 -72.27586 35827 ft 436 kts 210°
2026-05-04 21:49 12.01766 -72.30599 35820 ft 436 kts 210°
2026-05-04 21:49 11.96458 -72.33610 35814 ft 437 kts 210°
2026-05-04 21:50 11.91139 -72.36628 35813 ft 437 kts 210°
2026-05-04 21:50 11.85824 -72.39649 35814 ft 438 kts 210°
2026-05-04 21:51 11.80501 -72.42676 35815 ft 438 kts 210°
2026-05-04 21:51 11.75178 -72.45699 35822 ft 438 kts 210°
2026-05-04 21:52 11.69853 -72.48716 35825 ft 438 kts 210°
2026-05-04 21:52 11.64568 -72.51708 35825 ft 438 kts 210°
2026-05-04 21:53 11.59243 -72.54724 35824 ft 438 kts 210°
2026-05-04 21:53 11.53919 -72.57740 35824 ft 438 kts 210°
2026-05-04 21:54 11.48600 -72.60756 35825 ft 438 kts 210°
2026-05-04 21:54 11.45940 -72.62264 35822 ft 438 kts 210°
2026-05-04 21:55 11.41715 -72.64666 35823 ft 438 kts 210°
2026-05-04 21:55 11.36387 -72.67669 35825 ft 438 kts 210°
2026-05-04 21:56 11.31060 -72.70671 35829 ft 438 kts 210°
2026-05-04 21:56 11.25734 -72.73681 35832 ft 437 kts 210°
2026-05-04 21:57 11.20416 -72.76690 35835 ft 437 kts 210°
2026-05-04 21:57 11.15094 -72.79696 35835 ft 438 kts 210°
2026-05-04 21:58 11.09760 -72.82701 35842 ft 438 kts 210°
2026-05-04 21:58 11.04428 -72.85708 35838 ft 439 kts 210°
2026-05-04 21:59 10.99090 -72.88726 35846 ft 439 kts 210°
2026-05-04 21:59 10.93742 -72.91744 35851 ft 440 kts 210°
2026-05-04 22:00 10.88389 -72.94757 35857 ft 440 kts 210°
2026-05-04 22:00 10.83028 -72.97772 35865 ft 440 kts 210°
2026-05-04 22:01 10.77668 -73.00790 35868 ft 440 kts 210°
2026-05-04 22:01 10.72346 -73.03792 35872 ft 440 kts 210°
2026-05-04 22:02 10.66992 -73.06809 35872 ft 440 kts 210°
2026-05-04 22:02 10.61591 -73.09846 35872 ft 440 kts 210°
2026-05-04 22:03 10.56235 -73.12858 35878 ft 440 kts 210°
2026-05-04 22:03 10.50877 -73.15870 35873 ft 440 kts 210°
2026-05-04 22:04 10.45552 -73.18856 35861 ft 440 kts 210°
2026-05-04 22:04 10.40153 -73.21881 35861 ft 440 kts 210°
2026-05-04 22:05 10.34833 -73.24868 35864 ft 440 kts 210°
2026-05-04 22:05 10.29470 -73.27876 35867 ft 440 kts 210°
2026-05-04 22:06 10.24107 -73.30890 35864 ft 441 kts 210°
2026-05-04 22:06 10.18740 -73.33895 35870 ft 441 kts 209°
2026-05-04 22:07 10.13370 -73.36894 35864 ft 441 kts 209°
2026-05-04 22:07 10.07999 -73.39899 35846 ft 441 kts 210°
2026-05-04 22:08 10.02627 -73.42914 35843 ft 441 kts 210°
2026-05-04 22:08 9.97259 -73.45926 35833 ft 441 kts 209°
2026-05-04 22:09 9.91886 -73.48935 35838 ft 441 kts 209°
2026-05-04 22:09 9.86509 -73.51936 35836 ft 441 kts 209°
2026-05-04 22:10 9.80844 -73.54224 35831 ft 441 kts 188°
2026-05-04 22:10 9.74743 -73.55000 35821 ft 442 kts 187°
2026-05-04 22:11 9.68627 -73.55719 35816 ft 443 kts 187°
2026-05-04 22:11 9.62545 -73.56434 35818 ft 443 kts 187°
2026-05-04 22:12 9.56382 -73.57179 35824 ft 443 kts 187°
2026-05-04 22:12 9.50300 -73.57919 35829 ft 443 kts 187°
2026-05-04 22:13 9.44176 -73.58660 35831 ft 443 kts 187°
2026-05-04 22:13 9.38053 -73.59396 35837 ft 443 kts 187°
2026-05-04 22:14 9.31937 -73.60126 35843 ft 443 kts 187°
2026-05-04 22:14 9.25821 -73.60856 35838 ft 442 kts 187°
2026-05-04 22:15 9.19709 -73.61592 35846 ft 442 kts 187°
2026-05-04 22:15 9.13592 -73.62330 35842 ft 442 kts 187°
2026-05-04 22:16 9.07480 -73.63059 35847 ft 442 kts 187°
2026-05-04 22:16 9.01369 -73.63795 35844 ft 443 kts 187°
2026-05-04 22:17 8.95254 -73.64533 35842 ft 443 kts 187°
2026-05-04 22:17 8.89136 -73.65274 35840 ft 443 kts 187°
2026-05-04 22:18 8.83018 -73.66004 35851 ft 443 kts 186°
2026-05-04 22:18 8.76893 -73.66726 35852 ft 443 kts 186°
2026-05-04 22:19 8.70764 -73.67459 35858 ft 443 kts 186°
2026-05-04 22:19 8.64641 -73.68195 35863 ft 443 kts 186°
2026-05-04 22:20 8.58512 -73.68930 35866 ft 443 kts 186°
2026-05-04 22:20 8.52381 -73.69664 35869 ft 443 kts 186°
2026-05-04 22:21 8.46257 -73.70397 35868 ft 443 kts 186°
2026-05-04 22:21 8.41159 -73.71008 35869 ft 443 kts 186°
2026-05-04 22:22 8.35030 -73.71748 35869 ft 444 kts 186°
2026-05-04 22:22 8.28900 -73.72484 35865 ft 444 kts 186°
2026-05-04 22:23 8.22767 -73.73210 35863 ft 444 kts 186°
2026-05-04 22:23 8.16623 -73.73941 35864 ft 444 kts 186°
2026-05-04 22:24 8.10487 -73.74678 35866 ft 444 kts 186°
2026-05-04 22:24 8.04347 -73.75415 35865 ft 444 kts 186°
2026-05-04 22:25 7.98207 -73.76140 35862 ft 444 kts 186°
2026-05-04 22:25 7.92067 -73.76868 35861 ft 444 kts 186°
2026-05-04 22:26 7.85925 -73.77603 35858 ft 444 kts 186°
2026-05-04 22:26 7.79784 -73.78332 35855 ft 444 kts 186°
2026-05-04 22:27 7.73642 -73.79066 35854 ft 445 kts 186°
2026-05-04 22:27 7.67538 -73.79797 35854 ft 445 kts 186°
2026-05-04 22:28 7.61351 -73.80534 35849 ft 445 kts 186°
2026-05-04 22:28 7.55247 -73.81263 35849 ft 445 kts 186°
2026-05-04 22:29 7.49103 -73.81991 35843 ft 445 kts 186°
2026-05-04 22:29 7.42950 -73.82720 35847 ft 445 kts 186°
2026-05-04 22:30 7.36804 -73.83452 35844 ft 445 kts 186°
2026-05-04 22:30 7.30652 -73.84186 35824 ft 445 kts 186°
2026-05-04 22:31 7.24501 -73.84919 35821 ft 445 kts 186°
2026-05-04 22:31 7.18341 -73.85651 35817 ft 446 kts 186°
2026-05-04 22:32 7.12180 -73.86389 35799 ft 446 kts 186°
2026-05-04 22:32 7.06014 -73.87121 35809 ft 446 kts 186°
2026-05-04 22:33 6.99842 -73.87856 35807 ft 447 kts 186°
2026-05-04 22:33 6.93670 -73.88587 35811 ft 447 kts 186°
2026-05-04 22:34 6.87491 -73.89317 35824 ft 447 kts 186°
2026-05-04 22:34 6.81318 -73.90043 35839 ft 447 kts 186°
2026-05-04 22:35 6.75141 -73.90778 35856 ft 447 kts 186°
2026-05-04 22:35 6.68958 -73.91515 35883 ft 447 kts 186°
2026-05-04 22:36 6.62777 -73.92251 35889 ft 447 kts 186°
2026-05-04 22:36 6.56594 -73.92990 35898 ft 447 kts 186°
2026-05-04 22:37 6.50409 -73.93726 35910 ft 448 kts 186°
2026-05-04 22:37 6.44224 -73.94455 35924 ft 448 kts 186°
2026-05-04 22:38 6.38034 -73.95184 35939 ft 448 kts 186°
2026-05-04 22:38 6.31845 -73.95920 35955 ft 448 kts 186°
2026-05-04 22:39 6.25706 -73.96648 35974 ft 448 kts 186°
2026-05-04 22:39 6.19500 -73.97382 35608 ft 452 kts 186°
2026-05-04 22:39 6.16379 -73.97749 35057 ft 451 kts 186°
2026-05-04 22:40 6.13272 -73.98117 34527 ft 449 kts 186°
2026-05-04 22:40 6.10175 -73.98486 33986 ft 447 kts 186°
2026-05-04 22:40 6.07091 -73.98852 33417 ft 445 kts 186°
2026-05-04 22:40 6.04029 -73.99214 32899 ft 442 kts 186°
2026-05-04 22:41 6.00986 -73.99582 32365 ft 439 kts 187°
2026-05-04 22:41 5.97972 -74.00045 31853 ft 437 kts 189°
2026-05-04 22:41 5.94983 -74.00600 31343 ft 435 kts 190°
2026-05-04 22:41 5.92041 -74.01201 30835 ft 427 kts 191°
2026-05-04 22:42 5.89173 -74.01802 30364 ft 418 kts 191°
2026-05-04 22:42 5.86331 -74.02389 29841 ft 416 kts 190°
2026-05-04 22:42 5.83512 -74.02951 29377 ft 411 kts 190°
2026-05-04 22:42 5.80707 -74.03492 28926 ft 407 kts 189°
2026-05-04 22:43 5.77939 -74.04012 28487 ft 403 kts 189°
2026-05-04 22:43 5.75194 -74.04522 28050 ft 399 kts 189°
2026-05-04 22:43 5.72471 -74.05029 27601 ft 396 kts 189°
2026-05-04 22:43 5.69771 -74.05537 27169 ft 393 kts 189°
2026-05-04 22:44 5.67091 -74.06046 26725 ft 391 kts 189°
2026-05-04 22:44 5.64426 -74.06553 26275 ft 389 kts 189°
2026-05-04 22:44 5.61774 -74.07057 25816 ft 387 kts 189°
2026-05-04 22:44 5.59135 -74.07557 25351 ft 385 kts 189°
2026-05-04 22:45 5.56503 -74.08055 24887 ft 384 kts 189°
2026-05-04 22:45 5.51241 -74.09049 23918 ft 385 kts 188°
2026-05-04 22:45 5.48607 -74.09545 23376 ft 385 kts 188°
2026-05-04 22:46 5.45977 -74.10044 22882 ft 384 kts 188°
2026-05-04 22:46 5.43410 -74.10770 22401 ft 385 kts 201°
2026-05-04 22:46 5.41077 -74.12078 21982 ft 385 kts 215°
2026-05-04 22:46 5.39164 -74.13851 21730 ft 374 kts 226°
2026-05-04 22:47 5.37424 -74.15808 21221 ft 369 kts 226°
2026-05-04 22:47 5.36291 -74.17088 20975 ft 369 kts 226°